Location: Unnamed
(45.7828°N, 108.5339°W)
Time: 14:25:41
(UTC-06:00)

X-37B - Visible Passes

Search period start: 22 June 2021 00:00
Search period end: 02 July 2021 00:00
Orbit: 386 x 389 km, 45.0° (Epoch: 10 June)

Date Brightness Start Highest point End Pass type
(mag) Time Alt. Az. Time Alt. Az. Time Alt. Az.
22 Jun 1.0 03:25:04 36° SW 03:25:28 38° SSW 03:28:26 10° SE visible
22 Jun 1.2 23:11:09 10° SW 23:13:41 36° S 23:13:41 36° S visible
23 Jun 2.7 04:04:44 13° S 04:04:44 13° S 04:05:27 10° S visible
23 Jun 1.6 22:13:12 10° SSW 22:15:55 25° SSE 22:18:37 10° E visible
23 Jun 0.6 23:49:07 10° WSW 23:51:55 61° SW 23:51:55 61° SW visible
24 Jun 0.6 22:50:50 10° WSW 22:53:57 54° SSE 22:56:42 13° E visible
25 Jun 2.1 00:27:20 10° W 00:29:00 28° W 00:29:00 28° W visible
25 Jun 1.1 21:52:40 10° SW 21:55:40 38° SSE 21:58:39 10° E visible
25 Jun 0.4 23:28:58 10° W 23:32:09 79° S 23:33:17 36° E visible
26 Jun 0.5 22:30:38 10° WSW 22:33:49 70° S 22:36:58 10° E visible
27 Jun 1.2 00:07:13 10° W 00:09:38 46° WSW 00:09:38 46° WSW visible
27 Jun 0.4 23:08:52 10° W 23:12:03 78° S 23:13:36 27° E visible
28 Jun 3.3 00:45:33 10° W 00:45:52 12° W 00:45:52 12° W visible
28 Jun 0.5 22:10:30 10° W 22:13:41 79° S 22:16:52 10° E visible
28 Jun 1.0 23:47:08 10° W 23:49:48 47° SW 23:49:48 47° SW visible
29 Jun 0.5 22:48:45 10° W 22:51:56 68° S 22:53:41 24° ESE visible
30 Jun 3.2 00:25:37 10° W 00:25:57 12° W 00:25:57 12° W visible
30 Jun 0.5 21:50:23 10° W 21:53:34 78° S 21:56:46 10° E visible
30 Jun 1.3 23:27:05 10° W 23:29:51 36° SSW 23:29:51 36° SSW visible
01 Jul 0.8 22:28:39 10° W 22:31:46 52° SSW 22:33:46 20° SE visible
